TimeMST,TemperatureF,Dew PointF,Humidity,Sea Level PressureIn,VisibilityMPH,Wind Direction,Wind SpeedMPH,Gust SpeedMPH,PrecipitationIn,Events,Conditions,WindDirDegrees,DateUTC
12:53 AM,34.0,28.0,79,30.09,10.0,NE,19.6,-,N/A,,Clear,40,2012-11-16 07:53:00
1:53 AM,35.1,28.0,76,30.07,10.0,NE,19.6,26.5,N/A,,Clear,40,2012-11-16 08:53:00
2:53 AM,36.0,28.0,73,30.06,10.0,NE,18.4,25.3,N/A,,Clear,40,2012-11-16 09:53:00
3:53 AM,37.0,28.0,70,30.06,10.0,NE,16.1,-,N/A,,Clear,40,2012-11-16 10:53:00
5:53 AM,36.0,28.0,73,30.06,10.0,NE,16.1,-,N/A,,Overcast,40,2012-11-16 12:53:00
6:53 AM,37.0,28.0,70,30.06,10.0,NE,13.8,-,N/A,,Overcast,50,2012-11-16 13:53:00
7:53 AM,36.0,28.9,76,30.09,10.0,NE,9.2,-,N/A,,Clear,40,2012-11-16 14:53:00
8:53 AM,37.9,28.9,70,30.10,10.0,ENE,10.4,-,N/A,,Overcast,60,2012-11-16 15:53:00
9:53 AM,39.9,30.0,68,30.10,10.0,ENE,10.4,-,N/A,,Overcast,60,2012-11-16 16:53:00
10:53 AM,42.1,30.0,62,30.10,10.0,East,11.5,-,N/A,,Overcast,80,2012-11-16 17:53:00
11:53 AM,44.1,30.9,60,30.08,10.0,East,8.1,-,N/A,,Overcast,90,2012-11-16 18:53:00
12:53 PM,50.0,33.1,52,30.04,10.0,SW,4.6,-,N/A,,Partly Cloudy,220,2012-11-16 19:53:00
1:53 PM,53.1,33.1,47,30.03,10.0,WNW,4.6,-,N/A,,Clear,300,2012-11-16 20:53:00
2:53 PM,52.0,33.1,49,30.01,10.0,Calm,Calm,-,N/A,,Clear,0,2012-11-16 21:53:00
3:53 PM,52.0,33.1,49,30.01,10.0,Calm,Calm,-,N/A,,Clear,0,2012-11-16 22:53:00
4:53 PM,46.0,33.1,61,30.03,10.0,NE,6.9,-,N/A,,Partly Cloudy,40,2012-11-16 23:53:00
5:53 PM,46.0,34.0,63,30.04,10.0,NE,9.2,-,N/A,,Overcast,50,2012-11-17 00:53:00
6:53 PM,44.1,33.1,65,30.05,10.0,NE,8.1,-,N/A,,Overcast,50,2012-11-17 01:53:00
7:53 PM,45.0,33.1,63,30.05,10.0,East,10.4,-,N/A,,Overcast,80,2012-11-17 02:53:00
8:53 PM,43.0,32.0,65,30.04,10.0,ENE,8.1,-,N/A,,Partly Cloudy,60,2012-11-17 03:53:00
9:53 PM,43.0,32.0,65,30.04,10.0,ENE,9.2,-,N/A,,Partly Cloudy,60,2012-11-17 04:53:00
10:53 PM,37.9,32.0,79,30.06,10.0,NE,10.4,-,N/A,,Clear,40,2012-11-17 05:53:00
11:53 PM,39.0,32.0,76,30.05,10.0,NE,15.0,-,N/A,,Partly Cloudy,40,2012-11-17 06:53:00